Location: Unspecified
(48.2082°N, 0.0000°E)
Time: 01:35:44
(UTC+00:00)

S-56A Canister/Altair - Pass Details

Date: 26 June 2019
Orbit: 632 x 2500 km, 38.9° (Epoch: 21 July)

Event Time Altitude Azimuth Distance (km) Brightness Sun altitude
Rises 13:20:26 0° 213° (SSW) 5,869 12.5 60.8°
Reaches altitude 10° 13:25:22 10° 203° (SSW) 4,624 12.1 60.2°
Maximum altitude 13:34:44 27° 154° (SSE) 2,906 11.0 59.2°
Drops below altitude 10° 13:41:49 10° 102° (ESE) 3,435 10.8 58.3°
Sets 13:44:50 0° 90° (E) 4,142 11.0 58.0°
